Location: Nitra
(0.0000°N, 18.0833°E)
Time: 19:11:01
(UTC+02:00)

BEESAT 3 - Visible Passes

Search period start: 31 May 2023 00:00
Search period end: 10 June 2023 00:00
Orbit: 378 x 402 km, 64.9° (Epoch: 30 May)

Date Brightness Start Highest point End Pass type
(mag) Time Alt. Az. Time Alt. Az. Time Alt. Az.
31 May ? 19:34:21 10° WNW 19:36:34 18° WSW 19:38:47 10° SSW visible
02 Jun ? 06:10:12 10° S 06:13:04 33° ESE 06:15:58 10° NE visible
04 Jun ? 05:52:53 11° SSW 05:55:55 78° ESE 05:59:02 10° NNE visible
05 Jun ? 04:59:07 14° SE 04:59:47 15° ESE 05:01:39 10° ENE visible
06 Jun ? 05:37:33 40° WSW 05:38:07 45° WNW 05:41:08 10° N visible
07 Jun ? 04:43:22 17° ENE 04:43:22 17° ENE 04:44:27 10° NE visible
08 Jun ? 05:21:22 15° NNW 05:21:22 15° NNW 05:22:14 10° NNW visible
